Home > Weather > Volta Redonda > Past weeks

Flag for Brazil Past Weather in Volta Redonda, Rio de Janeiro, Brazil — Yesterday and Last 2 Weeks

Now
66 °F

Fog.


Feels Like: 66 °F
Forecast: 56 / 81 °F
Wind: 2 mph from Northeast

Location: Galeao

Current Time: May 30, 2016 at 4:07:59 AM

Latest Report: May 30, 2016 at 3:00 AM


Visibility: 3 mi

Pressure: 29.92 "Hg

Humidity: 94%

Dew Point: 64 °F

Location of Volta RedondaLocation

Past Weather in Volta Redonda — Graph

°F

Volta Redonda Temperature Yesterday

Maximum temperature yesterday: 79 °F (at 2:00 PM)
Minimum temperature yesterday: 66 °F (at 4:00 AM)
Average temperature yesterday: 71 °F

High & Low Weather Summary for the Past Weeks

 TemperatureHumidityPressure
High91 °F (May 16, 3:00 PM)100% (May 18, 7:00 PM)30.33 "Hg (May 18, 7:00 PM)
Low61 °F (May 25, 4:00 AM)38% (May 16, 3:00 PM)29.77 "Hg (May 16, 4:00 PM)
Average71 °F80%30.07 "Hg
* Reported May 15 3:00 AM — May 30 3:00 AM, Volta Redonda, Weather by CustomWeather, © 2016

Note: Actual official high and low records may vary slightly from our data, if they occured in-between our weather recording intervals... More about our weather records

Advertising

Volta Redonda Weather History for the Previous 24 Hours

Scroll right to see more
 ConditionsComfort  
Time TempWeatherWind HumidityBarometerVisibility
3:00 AM
Mon, May 30
66 °FFog.2 mph94%29.92 "Hg3 mi
2:00 AM68 °FClear.2 mph94%29.92 "Hg4 mi
1:00 AM68 °FClear.3 mph88%29.92 "Hg4 mi
12:00 AM70 °FClear.3 mph88%29.95 "Hg10 mi
11:00 PM
Sun, May 29
70 °FClear.3 mph88%29.95 "Hg10 mi
10:00 PM70 °FClear.2 mph88%29.98 "Hg10 mi
9:00 PM72 °FClear.2 mph83%30.01 "Hg10 mi
8:00 PM72 °FClear.3 mph88%29.98 "Hg10 mi
7:00 PM72 °FPassing clouds.7 mph88%29.98 "HgN/A
6:00 PM73 °FClear.5 mph78%29.98 "Hg10 mi
5:00 PM75 °FClear.7 mph74%29.95 "Hg10 mi
4:00 PM77 °FSunny.7 mph69%29.98 "Hg10 mi
3:00 PM79 °FSunny.7 mph58%29.98 "Hg10 mi
2:00 PM79 °FSunny.5 mph61%29.98 "Hg10 mi
1:00 PM77 °FPassing clouds.5 mph65%30.01 "HgN/A
12:00 PM77 °FPassing clouds.2 mph65%30.07 "HgN/A
11:00 AM75 °FPassing clouds.3 mph65%30.09 "HgN/A
10:00 AM72 °FPassing clouds.3 mph73%30.12 "HgN/A
9:00 AM70 °FPassing clouds.2 mph78%30.12 "Hg6 mi
8:00 AM66 °FClear.6 mph88%30.12 "Hg5 mi
7:00 AM66 °FPassing clouds.5 mph88%30.12 "Hg4 mi
6:00 AM66 °FScattered clouds.6 mph88%30.09 "Hg5 mi
5:00 AM66 °FPartly cloudy.2 mph94%30.09 "Hg5 mi
4:00 AM66 °FPartly cloudy.6 mph94%30.09 "Hg5 mi
Weather by CustomWeather, © 2016

See weather overviewHow to use our weather pages